Weather History for Detroit Metro, MI

Change the Weather History Date:

Sunday, November 11, 2012

  Actual Average Record
Temperature  
Mean Temperature 60 °F 44 °F  
Max Temperature 69 °F 51 °F 71 °F (1964)
Min Temperature 51 °F 36 °F 19 °F (1926)
Degree Days  
Heating Degree Days 5 22  
Month to date heating degree days 248 217  
Since 1 July heating degree days 741 728  
Cooling Degree Days 0 0  
Month to date cooling degree days 0 0  
Year to date cooling degree days 1156 803  
Growing Degree Days 10 (Base 50)    
Moisture  
Dew Point 41 °F    
Average Humidity 53    
Maximum Humidity 68    
Minimum Humidity 37    
Precipitation  
Precipitation 0.00 in 0.09 in 1.16 in (1879)
Month to date precipitation 0.01 0.99  
Year to date precipitation 23.76 29.21  
Snow  
Snow 0.00 in 0.00 in 4.10 in (1984)
Month to date snowfall 0.0 0.2  
Since 1 July snowfall T 0.3  
Since 1 September snowfall T 0.3  
Snow Depth 0.00 in    
Sea Level Pressure  
Sea Level Pressure 30.08 in    
Wind  
Wind Speed 15 mph (SSE)    
Max Wind Speed 33 mph    
Max Gust Speed 41 mph    
Visibility 10 miles    
Events      
T = Trace of Precipitation, MM = Missing Value Source: NWS Daily Summary

Daily Weather History Graph

Daily Weather History Graph

Search for Another Location

Airport:

Trip Planner

Search our weather history database for the weather conditions in past years. The results will help you decide how hot, cold, wet, or windy it might be!

Date:

Astronomy

Nov. 11, 2012 Rise Set
Actual Time 7:19 AM EST 5:14 PM EST
Civil Twilight 6:49 AM EST 5:44 PM EST
Nautical Twilight 6:15 AM EST 6:18 PM EST
Astronomical Twilight 5:42 AM EST 6:51 PM EST
Moon 4:29 AM EST (11/11) 3:39 PM EST (11/11)
Length of Visible Light 10h 55m
Length of Day
9h 55m
Waning Crescent, 7% of the Moon is Illuminated
Nov 11
Waning Crescent
Nov 13
New
Nov 20
First Quarter
Nov 28
Full
Dec 6
Last Quarter

Hourly Weather History & Observations

Time (EST) Temp. Dew Point Humidity Pressure Visibility Wind Dir Wind Speed Gust Speed Precip Events Conditions
12:53 AM 55.9 °F 45.0 °F 67% 30.08 in 10.0 mi South 10.4 mph - 0.00 in   Scattered Clouds
1:53 AM 55.0 °F 44.1 °F 67% 30.08 in 10.0 mi South 10.4 mph - N/A   Mostly Cloudy
2:53 AM 57.0 °F 43.0 °F 59% 30.09 in 10.0 mi South 12.7 mph - N/A   Scattered Clouds
3:53 AM 57.0 °F 42.1 °F 57% 30.10 in 10.0 mi South 12.7 mph - N/A   Partly Cloudy
4:53 AM 55.0 °F 42.1 °F 62% 30.12 in 10.0 mi South 9.2 mph - N/A   Partly Cloudy
5:53 AM 55.0 °F 41.0 °F 59% 30.13 in 10.0 mi South 10.4 mph - N/A   Partly Cloudy
6:53 AM 54.0 °F 41.0 °F 62% 30.15 in 10.0 mi SSE 8.1 mph - N/A   Scattered Clouds
7:53 AM 51.1 °F 41.0 °F 68% 30.16 in 10.0 mi SSE 8.1 mph - N/A   Scattered Clouds
8:53 AM 54.0 °F 42.1 °F 64% 30.16 in 10.0 mi SSE 13.8 mph - N/A   Scattered Clouds
9:53 AM 57.0 °F 43.0 °F 59% 30.16 in 10.0 mi SSE 11.5 mph - N/A   Mostly Cloudy
10:53 AM 64.4 °F 44.6 °F 49% 30.15 in 10.0 mi South 16.1 mph 21.9 mph N/A   Mostly Cloudy
11:53 AM 64.0 °F 44.1 °F 48% 30.13 in 10.0 mi South 20.7 mph 26.5 mph N/A   Mostly Cloudy
12:53 PM 66.9 °F 46.0 °F 47% 30.09 in 10.0 mi South 21.9 mph - N/A   Mostly Cloudy
1:53 PM 66.9 °F 46.9 °F 49% 30.07 in 10.0 mi South 23.0 mph 35.7 mph N/A   Mostly Cloudy
2:53 PM 68.0 °F 44.1 °F 42% 30.06 in 10.0 mi South 25.3 mph 32.2 mph N/A   Scattered Clouds
3:53 PM 66.9 °F 39.9 °F 37% 30.05 in 10.0 mi SSE 21.9 mph 28.8 mph N/A   Partly Cloudy
4:53 PM 64.9 °F 37.0 °F 36% 30.05 in 10.0 mi South 17.3 mph 26.5 mph N/A   Scattered Clouds
5:53 PM 63.0 °F 37.0 °F 38% 30.04 in 10.0 mi SSE 16.1 mph 26.5 mph N/A   Scattered Clouds
6:53 PM 61.0 °F 36.0 °F 39% 30.04 in 10.0 mi SSE 15.0 mph - N/A   Mostly Cloudy
7:53 PM 60.1 °F 37.9 °F 44% 30.03 in 10.0 mi SSE 17.3 mph - N/A   Mostly Cloudy
8:53 PM 59.0 °F 37.0 °F 44% 30.02 in 10.0 mi SSE 16.1 mph 24.2 mph N/A   Mostly Cloudy
9:53 PM 57.9 °F 37.0 °F 46% 30.03 in 10.0 mi SSE 13.8 mph - N/A   Scattered Clouds
10:53 PM 57.0 °F 37.0 °F 47% 30.00 in 10.0 mi SSE 11.5 mph - N/A   Mostly Cloudy
11:53 PM 57.0 °F 37.0 °F 47% 29.99 in 10.0 mi SSE 11.5 mph - N/A   Mostly Cloudy